Location: ?????
(38.3715°N, 23.0573°E)
Time: 20:59:36
(UTC+00:00)

Cosmos 192 - Pass Details

Date: 03 August 2024
Orbit: 698 x 709 km, 74.0° (Epoch: 14 September)

Event Time Altitude Azimuth Distance (km) Brightness Sun altitude
Rises 17:58:41 0° 197° (SSW) 3,090 7.5 -5.0°
Reaches altitude 10° 18:00:59 10° 198° (SSW) 2,175 6.8 -5.4°
Maximum altitude 18:05:55 87° 288° (WNW) 716 4.4 -6.2°
Drops below altitude 10° 18:10:52 10° 18° (NNE) 2,190 7.0 -7.1°
Sets 18:13:12 0° 19° (NNE) 3,112 7.8 -7.5°
